Location: Hermaringen
(48.5952°N, 10.2585°E)
Time: 09:49:06
(UTC+00:00)

Injun/Solrad 3 - Pass Details

Date: 22 February 2026
Orbit: 872 x 984 km, 66.8° (Epoch: 9 March)

Event Time Altitude Azimuth Distance (km) Brightness Sun altitude
Rises 18:59:21 0° 320° (NW) 3,583 11.7 -21.8°
Reaches altitude 10° 19:01:59 10° 313° (NW) 2,653 11.1 -22.2°
Maximum altitude 19:07:40 39° 247° (WSW) 1,386 9.2 -23.1°
Drops below altitude 10° 19:13:28 10° 180° (S) 2,703 10.2 -24.1°
Enters shadow 19:15:18 - 175° (S) 3,345 10.6 -24.4°
